This is the latest recevied weather packets stored in our database for station/object KE8KMM. If no packets are shown the sender has not sent any weather packets the latest 10 day(s).
| Time | Temp. | Humidity | Pressure | Rain* | Wind** | Luminosity | Snow |
|---|---|---|---|---|---|---|---|
| 1777393099 | 18.89° C | 84% | 1012 hPa | 0 mm | - | 494 W/m² | - |
| 1777392795 | 18.33° C | 84% | 1012.2 hPa | 0 mm | - | 355 W/m² | - |
| 1777392491 | 18.33° C | 85% | 1012.2 hPa | 0 mm | - | 367 W/m² | - |
| 1777392187 | 18.33° C | 86% | 1012.1 hPa | 0 mm | - | 196 W/m² | - |
| 1777391882 | 18.33° C | 85% | 1012.2 hPa | 0 mm | - | 233 W/m² | - |
| 1777391577 | 17.78° C | 86% | 1012.3 hPa | 0 mm | - | 285 W/m² | - |
| 1777391274 | 18.33° C | 86% | 1012.3 hPa | 0 mm | - | 184 W/m² | - |
| 1777390970 | 18.33° C | 85% | 1012.2 hPa | 0 mm | - | 285 W/m² | - |
| 1777390666 | 18.33° C | 85% | 1012.5 hPa | 0 mm | - | 214 W/m² | - |
| 1777390364 | 17.78° C | 85% | 1012.1 hPa | 0 mm | - | 345 W/m² | - |
| 1777390059 | 17.78° C | 86% | 1012.1 hPa | 0 mm | - | 354 W/m² | - |
| 1777389757 | 17.78° C | 86% | 1012.4 hPa | 0 mm | - | 376 W/m² | - |
| 1777389453 | 17.22° C | 87% | 1012 hPa | 0 mm | - | 388 W/m² | - |
| 1777389151 | 16.67° C | 88% | 1012 hPa | 0 mm | - | 223 W/m² | - |
| 1777388848 | 16.11° C | 88% | 1012 hPa | 0 mm | - | 193 W/m² | - |
| 1777388545 | 16.11° C | 89% | 1012.1 hPa | 0 mm | - | 163 W/m² | - |
| 1777388240 | 16.11° C | 88% | 1012.4 hPa | 0 mm | - | 187 W/m² | - |
| 1777387936 | 16.11° C | 88% | 1012.1 hPa | 0 mm | - | 146 W/m² | - |
| 1777387632 | 15.56° C | 89% | 1012.2 hPa | 0 mm | - | 154 W/m² | - |
| 1777387330 | 15.56° C | 89% | 1012.1 hPa | 0 mm | - | 183 W/m² | - |
| 1777387029 | 15.56° C | 90% | 1012.2 hPa | 0 mm | - | 157 W/m² | - |
| 1777386725 | 15° C | 90% | 1012.2 hPa | 0 mm | - | 164 W/m² | - |
| 1777386423 | 15° C | 90% | 1012 hPa | 0 mm | - | 144 W/m² | - |
| 1777386119 | 15° C | 90% | 1012.1 hPa | 0 mm | - | 135 W/m² | - |
| 1777385816 | 15° C | 90% | 1012 hPa | 0 mm | - | 152 W/m² | - |
* Rain latest hour (hover to see other rain measurements)
** Current wind speed in m/s (hover to see current wind gust speed)